Welcome to the New NWS' Forecast!
Most changes are behind the scenes, but click here for differences you might notice.

Regional Weather Roundup (RWR)

Issued by National Weather Service (NWS)

                            
729 
ASUS46 KPQR 201210
RWROR 

OREGON REGIONAL WEATHER ROUNDUP
NATIONAL WEATHER SERVICE PORTLAND OR
500 AM PDT MON AUG 20 2018

NOTE: "FAIR" INDICATES FEW OR NO CLOUDS BELOW 12,000 FEET WITH
NO SIGNIFICANT WEATHER AND/OR OBSTRUCTIONS TO VISIBILITY.

ORZ001>013-201300-
NORTHWEST OREGON

  
CITY           SKY/WX    TMP DP  RH WIND       PRES   REMARKS
ASTORIA        CLOUDY    57  56  96 SW3       30.04S                  
6HR MIN TEMP:  57; 6HR MAX TEMP:  58;                                

TILLAMOOK      CLOUDY    55  54  94 CALM      30.05F FOG              
NEWPORT        CLOUDY    55  54  94 N5        30.07S FOG              
PORTLAND       PTCLDY    61  56  83 CALM      30.00S                  
6HR MIN TEMP:  61; 6HR MAX TEMP:  70;                                

VANCOUVER WA   CLEAR     61  57  87 CALM      30.00S                  
6HR MIN TEMP:  60; 6HR MAX TEMP:  70;                                

SCAPPOOSE      CLEAR     57  54  89 CALM      29.99F                  
6HR MIN TEMP:  56; 6HR MAX TEMP:  68;                                

HILLSBORO      CLEAR     58  53  84 CALM      30.00S                  
6HR MIN TEMP:  57; 6HR MAX TEMP:  71;                                

AURORA         CLEAR     59  54  83 CALM      30.02R                  
6HR MIN TEMP:  58; 6HR MAX TEMP:  69;                                

MCMINNVILLE    CLEAR     55  54  96 W3        30.00S                  
6HR MIN TEMP:  55; 6HR MAX TEMP:  61;                                

SALEM          CLEAR     58  51  78 CALM      30.00S                  
6HR MIN TEMP:  57; 6HR MAX TEMP:  70;                                

CORVALLIS      CLEAR     56  53  90 NW10      30.02S                  
EUGENE         CLEAR     55  51  86 S6        30.02S                  
6HR MIN TEMP:  55; 6HR MAX TEMP:  66;                                

$$

ORZ021-028-201300-
SOUTHWEST OREGON

  
CITY           SKY/WX    TMP DP  RH WIND       PRES   REMARKS
NORTH BEND     CLOUDY    57  55  93 N8        30.06R                  
6HR MIN TEMP:  57; 6HR MAX TEMP:  59;                                

BROOKINGS      CLOUDY    54  53  97 CALM      29.97S FOG              
ROSEBURG       CLEAR     58  51  78 CALM      30.02S                  
6HR MIN TEMP:  58; 6HR MAX TEMP:  69;                                

SEXTON SUMMIT  CLEAR     60  47  61 NE7       30.08S                  
6HR MIN TEMP:  56; 6HR MAX TEMP:  61;                                

GRANTS PASS    FAIR      57  46  67 CALM      30.01S                  
MEDFORD        CLEAR     57  45  64 CALM      30.00R                  
6HR MIN TEMP:  57; 6HR MAX TEMP:  75;                                

$$

ORZ014>016-041-201300-
COLUMBIA GORGE

  
CITY           SKY/WX    TMP DP  RH WIND       PRES   REMARKS
TROUTDALE      CLEAR     59  54  83 CALM      30.00S                  
6HR MIN TEMP:  59; 6HR MAX TEMP:  71;                                

HOOD RIVER     MOCLDY    59  52  77 CALM      29.97S                  
THE DALLES     CLOUDY    69  57  65 NW12      29.93R                  
6HR MIN TEMP:  68; 6HR MAX TEMP:  79;                                

$$

ORZ029>031-041-044-049-050-061>064-502-503-505>511-201300-
EASTERN OREGON

  
CITY           SKY/WX    TMP DP  RH WIND       PRES   REMARKS
MADRAS         PTCLDY    55  46  71 S3        30.04S                  
REDMOND        CLOUDY    59  45  59 W5        30.04S                  
6HR MIN TEMP:  57; 6HR MAX TEMP:  70;                                

BEND           CLEAR     57  45  62 CALM      30.06S                  
PRINEVILLE     CLEAR     61  46  59 W9        30.04S                  
KLAMATH FALLS  CLEAR     44  40  85 N3        30.08R                  
6HR MIN TEMP:  43; 6HR MAX TEMP:  64;                                

LAKEVIEW       CLOUDY    43  35  73 N7        30.10S                  
HERMISTON      CLOUDY    63  45  51 S8        29.92R HAZE             
6HR MIN TEMP:  63; 6HR MAX TEMP:  75;                                

PENDLETON      CLOUDY    67  38  34 SW5       29.95R HAZE             
6HR MIN TEMP:  67; 6HR MAX TEMP:  75;                                

JOHN DAY       MOCLDY    69  42  38 E9        30.01F HAZE             
MEACHAM        CLOUDY    56  52  86 CALM      30.05R FOG              
6HR MIN TEMP:  54; 6HR MAX TEMP:  61; 6HR PCP:  0.02;                

LA GRANDE      LGT RAIN  61  53  75 N5        30.00R                  
6HR MIN TEMP:  61; 6HR MAX TEMP:  76; 6HR PCP:  0.02;                

BAKER CITY     CLOUDY    69  45  41 SW6       30.00F HAZE             
6HR MIN TEMP:  59; 6HR MAX TEMP:  73; 6HR PCP: TRACE;                

BURNS          PTCLDY    68  37  32 W7        30.00R HAZE             
6HR MIN TEMP:  65; 6HR MAX TEMP:  71;                                

ROME             N/A     62  32  32 SW5       29.96R                  
6HR MIN TEMP:  57; 6HR MAX TEMP:  74;                                

ONTARIO        PTCLDY    75  44  33 NW15G23   29.84S HAZE             
6HR MIN TEMP:  61; 6HR MAX TEMP:  76;                                

$$